SQ3MKP-13 Weather Reports


Display with metric or nautical units.
time (UTC)temp
F
wind
direction
speed
MPH
gust
MPH
rain 1hr
in
rain 24hr
in
rain mn
in
humidity
%
barometer
mb
20260905215258 55 284 3.0 7.0 0.00 0.00 0.00 91 1008.4
20260905214757 55 234 5.0 10.0 0.00 0.00 0.00 90 1008.4
20260905214256 55 258 4.0 8.0 0.00 0.00 0.00 90 1008.3
20260905213755 55 234 5.0 9.0 0.00 0.00 0.00 90 1008.3
20260905213254 55 258 4.0 10.0 0.00 0.00 0.00 90 1008.3
20260905212754 55 184 6.0 9.0 0.00 0.00 0.00 90 1008.2
20260905212253 55 296 6.0 9.0 0.00 0.00 0.00 90 1008.1
20260905211752 55 264 6.0 8.0 0.00 0.00 0.00 89 1008.1
20260905211251 55 240 4.0 6.0 0.00 0.00 0.00 89 1008.0
20260905210749 55 251 6.0 10.0 0.00 0.00 0.00 89 1008.1
20260905210249 55 264 5.0 7.0 0.00 0.00 0.00 89 1008.0
20260905205748 55 246 6.0 10.0 0.00 0.00 0.00 89 1008.0
20260905205247 55 264 6.0 13.0 0.00 0.00 0.00 89 1008.0
20260905204746 55 256 6.0 13.0 0.00 0.00 0.00 89 1008.0
20260905204245 55 240 7.0 10.0 0.00 0.00 0.00 89 1007.9
20260905203744 55 258 6.0 11.0 0.00 0.00 0.00 90 1007.9
20260905203243 55 218 5.0 10.0 0.00 0.00 0.00 90 1007.8
20260905202742 55 240 6.0 11.0 0.00 0.00 0.00 90 1007.8
20260905202241 55 234 6.0 10.0 0.00 0.00 0.00 90 1007.8
20260905201740 55 306 5.0 10.0 0.00 0.00 0.00 90 1007.7
20260905201239 55 252 5.0 8.0 0.00 0.00 0.00 91 1007.7
20260905200738 55 252 6.0 11.0 0.00 0.00 0.00 90 1007.6
20260905200237 55 295 0.0 0.0 0.00 0.00 0.00 90 1007.6
20260905195736 55 295 4.0 6.0 0.00 0.00 0.00 90 1007.6
20260905195235 55 256 5.0 7.0 0.00 0.00 0.00 90 1007.5
20260905194734 55 264 3.0 7.0 0.00 0.00 0.00 90 1007.4
20260905194232 55 307 4.0 6.0 0.00 0.00 0.00 90 1007.5
20260905193732 55 282 5.0 9.0 0.00 0.00 0.00 89 1007.4
20260905193231 56 336 6.0 10.0 0.00 0.00 0.00 90 1007.4
20260905192730 55 252 6.0 9.0 0.00 0.00 0.00 89 1007.3
20260905192229 56 246 4.0 4.0 0.00 0.00 0.00 89 1007.3
20260905191728 56 262 5.0 7.0 0.00 0.00 0.00 89 1007.3
20260905191227 56 228 0.0 0.0 0.00 0.00 0.00 89 1007.3
20260905190726 56 228 6.0 10.0 0.00 0.00 0.00 89 1007.2
20260905190225 56 204 6.0 9.0 0.00 0.00 0.00 89 1007.1
20260905185724 56 246 6.0 10.0 0.00 0.00 0.00 89 1007.0
20260905185224 56 270 6.0 11.0 0.00 0.00 0.00 90 1006.9
20260905184723 56 270 4.0 6.0 0.00 0.00 0.00 90 1006.9
20260905184222 56 246 6.0 9.0 0.00 0.00 0.00 89 1006.9
20260905183720 56 264 6.0 10.0 0.00 0.00 0.00 89 1006.9
20260905183219 56 276 6.0 7.0 0.00 0.00 0.00 89 1006.9
20260905182718 56 246 6.0 9.0 0.00 0.00 0.00 89 1006.8
20260905182217 56 264 5.0 8.0 0.00 0.00 0.00 89 1006.8
20260905181716 56 282 5.0 9.0 0.00 0.00 0.00 88 1006.9
20260905181215 56 258 5.0 6.0 0.00 0.00 0.00 88 1006.6
20260905180714 56 282 6.0 10.0 0.00 0.00 0.00 88 1006.7
20260905180213 56 246 7.0 11.0 0.00 0.00 0.00 88 1006.7
20260905175712 56 240 5.0 11.0 0.00 0.00 0.00 88 1006.5
20260905175211 56 256 7.0 10.0 0.00 0.00 0.00 88 1006.6
20260905174709 56 264 6.0 10.0 0.00 0.00 0.00 88 1006.5
20260905174208 56 224 5.0 6.0 0.00 0.00 0.00 88 1006.4
20260905173707 56 282 5.0 7.0 0.00 0.00 0.00 89 1006.4
20260905173206 56 258 6.0 10.0 0.00 0.00 0.00 89 1006.2
20260905172705 56 264 10.0 10.0 0.00 0.00 0.00 90 1006.2
20260905172204 55 201 0.0 0.0 0.00 0.00 0.00 91 1006.1
20260905171703 55 201 5.0 6.0 0.00 0.00 0.00 91 1006.3
20260905171202 56 324 4.0 4.0 0.00 0.00 0.00 90 1006.3
20260905170702 55 213 4.0 7.0 0.00 0.00 0.00 91 1006.2
20260905170200 55 282 6.0 8.0 0.00 0.00 0.00 91 1006.3
20260905165659 56 276 5.0 6.0 0.00 0.00 0.00 91 1006.2
20260905165158 55 222 0.0 0.0 0.00 0.00 0.00 92 1006.2
20260905164657 55 222 4.0 6.0 0.00 0.00 0.00 92 1006.1
20260905164156 55 252 0.0 0.0 0.01 0.00 0.00 92 1006.2
20260905163655 55 252 4.0 5.0 0.02 0.00 0.00 92 1006.2
20260905163154 56 252 7.0 9.0 0.05 0.00 0.00 92 1006.3
20260905162653 56 256 8.0 12.0 0.18 0.00 0.00 91 1006.6
20260905162152 56 222 7.0 11.0 0.17 0.00 0.00 91 1006.7
20260905161651 56 270 13.0 16.0 0.14 0.00 0.00 90 1006.6
20260905161150 60 282 5.0 6.0 0.00 0.00 0.00 79 1006.5
20260905160650 60 246 3.0 3.0 0.00 0.00 0.00 78 1005.1
20260905160148 60 234 4.0 6.0 0.00 0.00 0.00 77 1005.0
20260905155647 60 246 6.0 7.0 0.00 0.00 0.00 76 1005.0
20260905155146 60 181 3.0 6.0 0.00 0.00 0.00 78 1005.0
20260905154645 60 282 3.0 4.0 0.00 0.00 0.00 78 1005.1
20260905154144 61 252 4.0 5.0 0.00 0.00 0.00 78 1005.2
20260905153642 60 250 3.0 4.0 0.00 0.00 0.00 78 1005.1
20260905153142 60 231 3.0 3.0 0.00 0.00 0.00 79 1005.2
20260905152641 60 270 5.0 5.0 0.00 0.00 0.00 78 1005.2
20260905152139 60 216 3.0 4.0 0.00 0.00 0.00 79 1005.2
20260905151639 60 258 7.0 9.0 0.00 0.00 0.00 78 1005.2
20260905151137 60 246 5.0 7.0 0.01 0.00 0.00 79 1005.3
20260905150636 60 264 2.0 3.0 0.01 0.00 0.00 79 1005.5
20260905150136 60 273 6.0 7.0 0.01 0.00 0.00 78 1005.5
20260905145634 61 185 6.0 7.0 0.00 0.00 0.00 74 1005.6
20260905145134 62 244 7.0 11.0 0.00 0.00 0.00 72 1005.6
20260905144632 62 223 6.0 10.0 0.00 0.00 0.00 71 1005.5
20260905144132 63 290 4.0 6.0 0.00 0.00 0.00 68 1005.3
20260905143630 63 228 4.0 8.0 0.00 0.00 0.00 67 1005.2
20260905143129 63 246 5.0 7.0 0.00 0.00 0.00 68 1005.0
20260905142628 64 216 5.0 7.0 0.00 0.00 0.00 68 1005.0
20260905142126 64 249 7.0 9.0 0.00 0.00 0.00 66 1005.0
20260905141626 64 170 6.0 10.0 0.00 0.00 0.00 70 1005.0
20260905141125 64 180 0.0 0.0 0.00 0.00 0.00 72 1005.1
20260905140624 64 180 5.0 9.0 0.00 0.00 0.00 72 1005.0
20260905140123 64 252 3.0 3.0 0.00 0.00 0.00 71 1005.0
20260905135622 63 270 4.0 5.0 0.00 0.00 0.00 73 1004.9
20260905135121 62 266 5.0 6.0 0.00 0.00 0.00 74 1004.9
20260905134620 62 270 2.0 4.0 0.00 0.00 0.00 74 1004.9
20260905134119 62 246 5.0 6.0 0.00 0.00 0.00 75 1004.9
20260905133618 61 258 4.0 5.0 0.00 0.00 0.00 76 1004.8
20260905133117 60 240 0.0 0.0 0.01 0.00 0.00 75 1004.9
20260905132615 60 240 7.0 9.0 0.01 0.00 0.00 75 1004.8
20260905132115 60 240 7.0 10.0 0.01 0.00 0.00 77 1004.8
20260905131614 64 246 7.0 11.0 0.00 0.00 0.00 66 1005.1
20260905131113 65 228 9.0 13.0 0.00 0.00 0.00 64 1004.8
20260905130612 66 296 6.0 9.0 0.00 0.00 0.00 63 1004.7
20260905130111 66 252 8.0 13.0 0.00 0.00 0.00 61 1004.7
20260905125610 65 275 8.0 11.0 0.00 0.00 0.00 63 1004.6
20260905125108 65 300 6.0 10.0 0.00 0.00 0.00 67 1004.6
20260905124607 65 262 4.0 9.0 0.00 0.00 0.00 72 1004.6
20260905124107 65 282 5.0 8.0 0.00 0.00 0.00 76 1004.5
20260905123605 64 290 5.0 9.0 0.00 0.00 0.00 75 1004.6
20260905123104 64 237 4.0 7.0 0.00 0.00 0.00 78 1004.6
20260905122603 63 258 5.0 10.0 0.00 0.00 0.00 76 1004.6
20260905122102 62 145 6.0 10.0 0.00 0.00 0.00 79 1004.7
20260905121601 61 238 4.0 4.0 0.01 0.00 0.00 84 1004.7
20260905121100 60 276 2.0 3.0 0.01 0.00 0.00 85 1004.9
20260905120600 59 216 4.0 5.0 0.01 0.00 0.00 88 1004.9
20260905120059 57 205 0.0 0.0 0.00 0.00 0.00 90 1004.9
20260905115557 57 205 0.0 0.0 0.00 0.00 0.00 90 1004.9
20260905115056 57 205 0.0 0.0 0.00 0.00 0.00 90 1004.9
20260905114556 57 205 3.0 5.0 0.09 0.00 0.00 90 1005.1
20260905114054 56 234 4.0 6.0 0.09 0.00 0.00 90 1005.4
20260905113553 56 258 3.0 5.0 0.00 0.00 0.00 89 1005.3
20260905113052 56 294 5.0 6.0 0.00 0.00 0.00 88 1005.5
20260905112552 56 330 6.0 10.0 0.00 0.00 0.00 88 1005.5
20260905111700 62 322 9.0 18.0 0.01 0.00 0.00 72 1005.8
20260905111159 65 232 6.0 11.0 0.00 0.00 0.00 63 1005.1
20260905110657 65 251 8.0 14.0 0.00 0.00 0.00 61 1005.0
20260905110156 65 296 7.0 18.0 0.00 0.00 0.00 61 1004.8
20260905105656 65 264 10.0 15.0 0.00 0.00 0.00 60 1004.9
20260905105155 66 258 5.0 6.0 0.00 0.00 0.00 60 1004.8
20260905104654 65 252 7.0 11.0 0.00 0.00 0.00 60 1004.7
20260905104152 65 252 6.0 9.0 0.00 0.00 0.00 61 1004.8
20260905103651 65 200 8.0 11.0 0.00 0.00 0.00 60 1004.7
20260905103150 65 197 8.0 11.0 0.00 0.00 0.00 61 1004.7
20260905102649 64 228 8.0 14.0 0.00 0.00 0.00 62 1004.7
20260905102148 65 163 8.0 12.0 0.00 0.00 0.00 62 1004.7
20260905101648 65 181 7.0 10.0 0.00 0.00 0.00 62 1004.6
20260905101146 66 223 7.0 8.0 0.00 0.00 0.00 59 1004.5
20260905100646 66 198 10.0 15.0 0.00 0.00 0.00 59 1004.6
20260905100145 66 285 7.0 12.0 0.00 0.00 0.00 60 1004.5
20260905095644 65 301 9.0 16.0 0.00 0.00 0.00 60 1004.6
20260905095143 66 264 9.0 17.0 0.00 0.00 0.00 61 1004.6
20260905094642 66 239 9.0 15.0 0.00 0.00 0.00 59 1004.5
20260905094141 65 246 9.0 11.0 0.00 0.00 0.00 60 1004.4
20260905093640 65 232 10.0 17.0 0.00 0.00 0.00 61 1004.6
20260905093139 65 272 8.0 12.0 0.00 0.00 0.00 60 1004.7
20260905092638 65 282 9.0 15.0 0.00 0.00 0.00 61 1004.6
20260905092137 65 262 9.0 13.0 0.00 0.00 0.00 60 1004.5
20260905091636 64 194 10.0 16.0 0.00 0.00 0.00 61 1004.6
20260905091135 65 216 7.0 13.0 0.00 0.00 0.00 61 1004.6
20260905090634 64 307 7.0 13.0 0.00 0.00 0.00 63 1004.6
20260905090133 64 306 10.0 21.0 0.00 0.00 0.00 62 1004.5
20260905085632 64 222 8.0 17.0 0.00 0.00 0.00 63 1004.4
20260905085131 64 250 10.0 16.0 0.00 0.00 0.00 63 1004.4
20260905084630 64 276 9.0 14.0 0.00 0.00 0.00 64 1004.4
20260905084129 64 274 7.0 10.0 0.00 0.00 0.00 63 1004.3
20260905083627 64 258 7.0 8.0 0.00 0.00 0.00 65 1004.2
20260905083127 64 240 10.0 13.0 0.00 0.00 0.00 65 1004.2
20260905082626 63 252 9.0 14.0 0.00 0.00 0.00 65 1004.1
20260905082125 63 312 8.0 11.0 0.00 0.00 0.00 67 1004.1
20260905081624 63 307 9.0 16.0 0.00 0.00 0.00 68 1004.1
20260905081123 63 240 7.0 11.0 0.00 0.00 0.00 67 1004.0
20260905080622 62 240 8.0 11.0 0.00 0.00 0.00 68 1004.0
20260905080121 63 270 10.0 13.0 0.00 0.00 0.00 67 1004.0
20260905075620 63 258 9.0 13.0 0.00 0.00 0.00 68 1003.9
20260905075119 62 276 10.0 14.0 0.00 0.00 0.00 70 1003.9
20260905074619 63 294 8.0 11.0 0.00 0.00 0.00 70 1003.8
20260905074118 62 233 8.0 13.0 0.00 0.00 0.00 70 1003.8
20260905073617 62 279 10.0 17.0 0.00 0.00 0.00 71 1003.7
20260905073116 62 278 9.0 15.0 0.00 0.00 0.00 72 1003.9
20260905072615 62 260 10.0 13.0 0.00 0.00 0.00 72 1003.7
20260905072114 62 334 7.0 13.0 0.00 0.00 0.00 73 1003.7
20260905071613 62 256 8.0 10.0 0.00 0.00 0.00 73 1003.6
20260905071112 61 228 9.0 11.0 0.00 0.00 0.00 74 1003.6
20260905070611 61 228 7.0 11.0 0.00 0.00 0.00 75 1003.5
20260905070110 60 255 7.0 10.0 0.00 0.00 0.00 76 1003.4
20260905065609 60 240 8.0 11.0 0.00 0.00 0.00 78 1003.4
20260905065108 60 246 6.0 10.0 0.00 0.00 0.00 79 1003.4
20260905064606 60 276 6.0 8.0 0.00 0.00 0.00 80 1003.3
20260905064106 60 234 10.0 10.0 0.00 0.00 0.00 80 1003.4
20260905063605 60 261 10.0 10.0 0.00 0.00 0.00 80 1003.3
20260905063104 60 264 5.0 6.0 0.00 0.00 0.00 79 1003.2
20260905062603 60 244 4.0 5.0 0.00 0.00 0.00 79 1003.2
20260905062102 60 228 0.0 0.0 0.00 0.00 0.00 80 1003.2
20260905061601 60 228 5.0 6.0 0.00 0.00 0.00 80 1003.1
20260905061100 60 270 8.0 10.0 0.00 0.00 0.00 80 1003.2
20260905060600 60 288 6.0 10.0 0.00 0.00 0.00 80 1003.2
20260905060059 60 246 2.0 2.0 0.00 0.00 0.00 79 1003.1
20260905055557 60 222 5.0 7.0 0.00 0.00 0.00 80 1003.0
20260905055056 60 246 9.0 11.0 0.00 0.00 0.00 79 1002.9
20260905054555 60 228 7.0 11.0 0.00 0.00 0.00 80 1003.0
20260905054054 60 198 5.0 10.0 0.00 0.00 0.00 80 1002.8
20260905053553 60 270 4.0 6.0 0.00 0.00 0.00 81 1002.8
20260905053052 60 233 8.0 9.0 0.00 0.00 0.00 81 1002.6
20260905052551 60 252 8.0 11.0 0.00 0.00 0.00 81 1002.6
20260905052050 60 232 6.0 8.0 0.00 0.00 0.00 81 1002.5
20260905051549 60 240 7.0 11.0 0.00 0.00 0.00 81 1002.4
20260905051049 59 255 8.0 11.0 0.00 0.00 0.00 82 1002.4
20260905050548 59 234 6.0 9.0 0.00 0.00 0.00 81 1002.3
20260905050046 59 210 5.0 6.0 0.00 0.00 0.00 81 1002.2
20260905045545 59 234 8.0 10.0 0.00 0.00 0.00 82 1002.3
20260905045044 59 276 6.0 10.0 0.00 0.00 0.00 82 1002.3
20260905044544 59 210 7.0 7.0 0.00 0.00 0.00 82 1002.3
20260905044042 59 252 6.0 10.0 0.00 0.00 0.00 82 1002.2
20260905043540 59 198 6.0 10.0 0.00 0.00 0.00 83 1002.1
20260905043039 59 234 7.0 10.0 0.00 0.00 0.00 83 1002.0
20260905042539 59 264 5.0 10.0 0.00 0.00 0.00 83 1001.9
20260905042038 59 294 5.0 10.0 0.00 0.00 0.00 84 1001.9
20260905041537 59 270 7.0 10.0 0.00 0.00 0.00 83 1001.8
20260905041036 59 216 6.0 10.0 0.00 0.00 0.00 83 1001.7
20260905040535 59 240 7.0 11.0 0.00 0.00 0.00 83 1001.6
20260905040034 59 175 8.0 11.0 0.00 0.00 0.00 83 1001.6
20260905035532 59 234 5.0 7.0 0.00 0.00 0.00 84 1001.5
20260905035032 59 250 7.0 10.0 0.00 0.00 0.00 84 1001.5
20260905034530 59 264 7.0 10.0 0.00 0.00 0.00 83 1001.5
20260905034029 59 262 6.0 10.0 0.00 0.00 0.00 84 1001.4
20260905033529 59 234 6.0 9.0 0.00 0.00 0.00 84 1001.3
20260905033027 59 276 8.0 11.0 0.00 0.00 0.00 83 1001.3
20260905032526 59 232 6.0 11.0 0.00 0.00 0.00 83 1001.3
20260905032025 60 278 8.0 12.0 0.00 0.00 0.00 83 1001.2
20260905031524 60 276 9.0 13.0 0.00 0.00 0.00 83 1001.1
20260905031024 60 276 7.0 11.0 0.00 0.00 0.00 82 1001.1
20260905030523 60 246 7.0 11.0 0.00 0.00 0.00 82 1001.1
20260905030021 60 282 4.0 6.0 0.00 0.00 0.00 82 1000.9
20260905025520 60 223 7.0 13.0 0.00 0.00 0.00 82 1000.8
20260905025019 60 239 8.0 13.0 0.00 0.00 0.00 83 1000.8
20260905024518 60 291 8.0 12.0 0.00 0.00 0.00 83 1000.6
20260905024018 60 300 6.0 10.0 0.00 0.00 0.00 83 1000.6
20260905023517 60 276 5.0 7.0 0.00 0.00 0.00 84 1000.7
20260905022514 60 270 5.0 5.0 0.00 0.00 0.00 84 1000.6
20260905022013 60 240 7.0 10.0 0.00 0.00 0.00 83 1000.7
20260905021511 60 264 5.0 7.0 0.00 0.00 0.00 84 1000.7
20260905021010 60 251 6.0 7.0 0.00 0.00 0.00 84 1000.6
20260905020509 60 252 4.0 5.0 0.00 0.00 0.00 84 1000.6
20260905020008 61 276 6.0 10.0 0.00 0.00 0.00 83 1000.6
20260905015507 61 216 6.0 7.0 0.00 0.00 0.00 83 1000.6
20260905015006 61 288 4.0 10.0 0.00 0.00 0.00 83 1000.4
20260905014505 61 278 6.0 10.0 0.00 0.00 0.00 83 1000.3
20260905014004 61 238 4.0 4.0 0.00 0.00 0.00 83 1000.2
20260905013502 61 258 5.0 6.0 0.00 0.00 0.00 82 1000.3
20260905013002 61 232 5.0 6.0 0.00 0.00 0.00 81 1000.2
20260905012501 61 288 7.0 10.0 0.00 0.00 0.00 82 1000.2
20260905012000 62 264 5.0 6.0 0.00 0.00 0.00 82 1000.2
20260905011459 61 216 5.0 9.0 0.00 0.00 0.00 82 1000.1
20260905010958 62 252 0.0 0.0 0.00 0.00 0.00 82 1000.1
20260905010457 62 252 6.0 10.0 0.00 0.00 0.00 82 1000.3
20260905005956 62 268 6.0 13.0 0.00 0.00 0.00 82 1000.2
20260905005455 62 234 6.0 10.0 0.00 0.00 0.00 82 1000.0
20260905004953 62 223 6.0 10.0 0.00 0.00 0.00 81 1000.0
20260905004452 62 246 9.0 12.0 0.00 0.00 0.00 81 999.9
20260905003951 62 252 7.0 7.0 0.00 0.00 0.00 80 999.9
20260905003449 62 210 10.0 13.0 0.00 0.00 0.00 80 999.8
20260905002948 62 264 6.0 7.0 0.00 0.00 0.00 81 999.7
20260905002448 62 264 7.0 11.0 0.00 0.00 0.00 81 999.4
20260905001947 62 240 7.0 11.0 0.00 0.00 0.00 81 999.2
20260905000944 62 240 8.0 11.0 0.00 0.00 0.00 82 999.2
20260905000443 62 222 8.0 13.0 0.00 0.00 0.00 83 999.2
20260904235941 62 354 0.0 0.0 0.00 0.00 0.00 84 999.3
20260904235440 62 354 7.0 11.0 0.00 0.00 0.00 84 999.3
20260904234939 62 284 8.0 13.0 0.00 0.00 0.00 84 999.3
20260904234438 62 288 6.0 9.0 0.00 0.00 0.00 85 999.3
20260904233936 61 270 5.0 7.0 0.00 0.00 0.00 85 999.3
20260904233435 61 216 6.0 9.0 0.00 0.00 0.00 85 999.2
20260904232935 61 237 7.0 10.0 0.00 0.00 0.00 84 999.2
20260904232433 62 186 8.0 11.0 0.00 0.00 0.00 85 999.1
20260904231932 62 239 7.0 15.0 0.00 0.00 0.00 85 999.0
20260904231430 62 246 8.0 12.0 0.00 0.00 0.00 85 999.0
20260904230930 61 222 7.0 14.0 0.00 0.00 0.00 85 998.7
20260904230429 61 258 6.0 11.0 0.00 0.00 0.00 85 998.7
20260904225927 62 264 6.0 11.0 0.00 0.00 0.00 85 998.5
20260904225426 62 250 9.0 11.0 0.00 0.00 0.00 85 998.5
20260904224925 62 258 8.0 11.0 0.00 0.00 0.00 84 998.4
20260904224425 62 270 8.0 14.0 0.00 0.00 0.00 84 998.4
20260904223924 62 228 7.0 11.0 0.00 0.00 0.00 84 998.5
20260904223422 62 244 7.0 10.0 0.00 0.00 0.00 84 998.4
20260904222921 62 228 9.0 13.0 0.00 0.00 0.00 84 998.4
20260904222420 62 246 8.0 11.0 0.00 0.00 0.00 84 998.3
20260904221919 62 240 7.0 11.0 0.00 0.00 0.00 84 998.3
20260904221419 62 258 8.0 10.0 0.00 0.00 0.00 84 998.1
20260904220917 62 240 8.0 10.0 0.00 0.00 0.00 83 998.2
20260904220416 62 264 7.0 11.0 0.00 0.00 0.00 83 998.2
20260904215915 62 240 8.0 12.0 0.00 0.00 0.00 83 998.0